Miscellaneous Local Product
Issued by NWS Hastings, NE

Home | Current Version | Previous Version | Graphics & Text | Print | Product List | Glossary On
Versions: 1 2 3 4 5 6 7 8 9 10 11 12 13 14 15 16 17 18 19 20 21 22 23 24 25 26 27 28 29 30 31 32 33 34 35 36 37 38 39 40 41 42 43 44 45 46 47 48 49 50
000
AXUS43 KGID 220802
MISGRI

GID CWA HOURLY WEATHER ROUNDUP
NATIONAL WEATHER SERVICE HASTINGS NE
300 AM CDT WED OCT 22 2014

NOTE: "FAIR" INDICATES FEW OR NO CLOUDS BELOW 12,000 FEET WITH NO
SIGNIFICANT WEATHER AND/OR OBSTRUCTIONS TO VISIBILITY.

...SOUTH CENTRAL NEBRASKA...

CITY           SKY/WX    TMP DP  RH WIND       PRES   REMARKS
GRAND ISLAND   CLEAR     58  52  80 SE12      29.99S
HASTINGS       CLEAR     59  53  80 SE10      29.99S
KEARNEY        CLEAR     57  54  88 SE13      29.98S
ORD            CLEAR     55  50  83 SE7       29.94S
YORK           PTCLDY    55  46  71 SE10      30.03R
AURORA         CLEAR     55  48  76 SE7       30.01R HAZE
LEXINGTON      CLEAR     59  54  83 SE8       29.95S
HOLDREGE       CLEAR     57  53  86 S3        29.97S
HEBRON         CLEAR     59  52  77 SE10      30.03R

...NEBRASKA PANHANDLE...

CITY           SKY/WX    TMP DP  RH WIND       PRES   REMARKS
CHADRON        LGT RAIN  66  46  48 W15G25    29.88R
ALLIANCE       CLOUDY    52  43  71 W12       29.91R
SCOTTSBLUFF    LGT RAIN  54  51  90 NW8       29.93F
SIDNEY         CLOUDY    57  45  64 NW14      29.94S

...WESTERN AND NORTH CENTRAL NEBRASKA...

CITY           SKY/WX    TMP DP  RH WIND       PRES   REMARKS
VALENTINE      PTCLDY    62  54  74 S12G23    29.85S
AINSWORTH      CLEAR     56  52  86 S15       29.88S
ONEILL         CLEAR     58  47  67 SE15      29.93S
BROKEN BOW     PTCLDY    56  53  90 SE6       29.93S
IMPERIAL       MOCLDY    60  46  59 S12       29.90F
NORTH PLATTE   NOT AVBL
MCCOOK         CLEAR     62  51  67 S13G21    29.93S

...EASTERN NEBRASKA...

CITY           SKY/WX    TMP DP  RH WIND       PRES   REMARKS
NORFOLK        CLEAR     58  42  55 SE17      30.00S
SO SIOUX CITY  CLEAR     54  45  71 SE9       30.06S
TEKAMAH        CLEAR     56  45  66 SE14      30.07S
COLUMBUS       CLEAR     57  41  54 SE10      30.04R
ALBION         CLEAR     55  43  63 SE8       29.99S
OMAHA EPPLEY   CLOUDY    57  44  62 SE16      30.09R
OFFUTT AFB     CLEAR     55  49  82 E13       30.09R
MILLARD        CLEAR     56  46  69 SE9       30.08R
LINCOLN        CLEAR     58  43  57 S13       30.06R
NEBRASKA CITY  CLEAR     55  41  60 SE10      30.09S
BEATRICE       CLEAR     57  45  63 SE10      30.05R
FALLS CITY     CLEAR     55  45  68 SE8       30.10R

...NORTHERN KANSAS...

CITY           SKY/WX    TMP DP  RH WIND       PRES   REMARKS
GOODLAND       PTCLDY    52  47  83 S12       29.95F
HILL CITY      CLEAR     62  52  69 S9        29.97F
NORTON         SUNNY     59  48  67 S5        29.96S
PHILLIPSBURG   CLEAR     63  55  77 S8        29.98R HAZE
SMITH CENTER   CLEAR     57  54  88 SE8       30.00R
BELOIT         CLEAR     61  59  94 SE7       30.01R
HAYS           CLEAR     55  48  76 S7        30.00S
RUSSELL        CLEAR     57  54  89 S9        30.00R
CONCORDIA      CLEAR     60  56  86 S15       30.03R
SALINA         CLEAR     63  57  81 SE10      30.03R
TOPEKA         CLEAR     55  46  71 E5        30.10R



USA.gov is the U.S. government's official web portal to all federal, state and local government web resources and services.